RH
10 10 10 10 10 9 9 9 8 8 8 8 7 8 8 7 7 6 6 6 7 9 10 11 11 11 12 12 12 13 13 13 13 12 11 10 10 9 8 8 8 8 8 8 8 10 9 8 8 9 9 9 11 11 12 12 13 14 14 15 14 13 12 13 16 16 17 17 15 16 16 19 22 28 34 35 36 37 37 37 38 37 35 36 39 41 40 41
13 12 12 11 10 10 10 10 10 9 9 9 8 8 8 9 8 7 7 6 6 7 9 11 12 12 13 12 12 12 13 13 13 12 12 13 13 11 9 9 9 8 9 9 8 8 9 8 8 9 9 10 12 12 12 12 13 13 14 14 13 13 11 11 16 16 18 20 19 18 17 18 19 25 32 37 43 42 42 43 42 42 42 41 41 42 43 43
14 14 14 13 12 12 11 11 11 10 10 9 9 9 8 9 9 9 8 8 7 7 8 9 11 12 12 12 12 12 12 12 12 14 15 14 13 12 11 10 8 9 10 10 8 8 8 8 8 9 10 12 14 13 13 13 13 14 14 13 12 12 11 11 15 17 19 21 21 19 18 20 18 20 32 41 45 46 49 49 46 47 46 44 43 44 44 45
12 12 13 13 12 12 12 12 11 10 10 9 10 9 9 8 9 9 9 9 9 8 8 8 9 10 11 12 12 12 11 11 13 17 17 16 14 12 11 11 9 9 11 10 8 8 9 9 8 9 12 14 14 13 13 13 13 14 14 14 12 11 11 11 14 17 21 22 21 20 20 21 18 20 34 43 45 47 51 48 43 45 46 44 43 43 43 47
11 11 10 11 10 11 11 11 10 10 9 9 9 9 9 9 8 9 10 10 10 10 10 9 9 9 9 11 11 11 10 10 15 19 18 18 16 14 13 12 10 10 11 10 9 8 9 11 10 11 13 14 14 14 14 14 14 15 14 13 12 11 11 11 12 16 21 22 20 21 21 20 18 21 33 39 40 42 42 40 37 36 39 41 42 43 45 51
10 10 10 10 9 9 9 9 9 9 9 9 9 9 9 9 9 8 9 10 11 11 11 10 10 9 9 9 10 11 10 9 13 16 17 17 17 15 14 12 12 11 10 10 9 8 11 12 12 13 14 14 15 15 14 14 15 17 16 13 13 13 11 11 12 14 19 22 21 21 22 20 18 19 25 30 31 31 33 35 37 36 37 40 42 43 43 47
11 11 10 10 10 9 9 9 9 9 9 9 9 9 8 8 8 8 8 9 10 11 12 11 10 10 10 9 9 9 11 9 9 12 14 16 16 15 15 14 13 12 11 10 9 9 11 13 14 13 14 14 15 15 15 15 16 18 17 14 14 14 13 12 13 15 18 21 21 21 21 21 20 18 21 26 24 24 30 34 39 43 42 42 42 41 40 44
13 12 11 11 11 10 10 10 10 9 9 9 9 9 9 9 9 9 9 9 9 10 11 11 11 10 9 10 9 9 10 8 8 11 13 14 15 15 16 16 14 13 12 11 9 9 12 15 14 13 14 15 15 15 15 15 17 17 16 15 15 15 15 13 14 17 18 20 20 21 22 21 20 18 20 23 22 24 28 30 38 44 43 43 43 40 43 46
16 15 14 14 13 13 12 12 12 12 11 11 11 11 10 10 9 9 9 9 9 9 10 11 12 11 10 9 10 10 8 7 9 12 12 13 15 16 17 16 15 14 13 13 12 11 13 15 14 14 15 15 15 15 15 16 18 17 16 16 15 15 14 14 15 16 18 19 19 20 22 21 20 19 19 23 27 29 28 30 37 41 42 44 44 44 46 47
16 16 15 15 15 15 14 14 14 13 13 13 12 12 12 11 11 10 9 9 9 9 9 10 11 11 11 11 11 10 7 9 13 14 13 13 14 16 17 16 16 15 14 14 14 14 13 14 15 15 16 17 17 18 18 19 19 17 17 17 16 15 14 13 14 16 19 19 20 21 22 22 20 19 20 25 32 33 32 35 38 38 42 44 45 47 48 46
16 15 14 14 14 14 14 13 13 13 13 13 13 12 12 12 11 11 10 10 10 9 9 9 10 10 11 11 13 11 7 9 13 14 14 13 13 15 17 17 17 16 15 14 15 15 14 16 18 19 20 20 19 20 20 20 19 18 18 17 16 15 14 14 13 14 18 20 20 21 22 21 19 18 19 25 33 33 33 39 41 40 43 45 47 49 48 49
16 15 15 14 13 13 12 12 12 12 12 12 12 12 12 12 12 12 11 11 10 10 10 9 10 9 10 12 11 9 7 8 11 13 14 13 13 14 16 17 18 18 16 17 18 15 15 19 21 23 23 23 22 22 20 19 19 17 17 17 17 16 14 14 13 13 15 18 20 22 22 21 19 18 17 24 33 34 34 39 40 42 45 45 46 47 48 50
16 15 15 14 13 13 12 12 11 11 11 11 11 11 11 12 12 12 12 12 11 11 10 9 10 9 11 12 9 7 7 8 9 11 13 14 13 14 15 17 19 19 17 20 21 17 18 23 24 26 26 25 24 22 20 19 18 18 18 17 16 16 15 14 14 13 13 15 18 22 23 22 20 19 17 24 34 37 37 39 37 40 44 45 45 44 46 47
17 15 15 14 14 13 13 13 12 12 12 11 11 11 11 11 12 12 12 12 12 12 11 10 10 10 12 12 7 7 8 8 8 9 10 12 13 13 15 18 19 18 17 20 23 20 21 25 26 27 27 27 25 23 21 19 18 18 18 18 18 17 16 15 14 14 14 13 15 20 24 23 20 19 18 23 33 37 37 38 37 37 40 43 44 42 43 45
17 16 15 15 14 14 14 13 13 13 12 12 12 11 11 11 11 11 11 12 12 12 12 11 11 11 15 13 8 10 12 9 8 8 8 10 11 13 14 17 18 17 17 20 23 23 23 25 25 27 26 26 25 24 24 22 21 21 19 20 21 18 16 16 15 14 14 14 14 18 23 23 21 20 19 22 31 36 36 38 37 35 37 41 42 42 43 46
18 17 16 15 15 15 14 14 14 13 13 13 12 12 12 12 12 11 11 12 12 12 12 14 15 16 19 16 12 14 15 13 12 11 11 10 10 12 13 15 16 16 17 19 22 23 25 25 26 27 25 26 26 26 27 27 26 25 21 21 22 19 18 17 15 15 14 15 15 16 20 22 21 21 20 21 29 36 37 37 37 35 36 38 40 41 44 49
19 18 16 16 15 15 15 14 14 14 13 13 12 12 12 12 12 12 12 12 11 13 14 17 21 22 19 14 13 13 13 14 16 15 14 12 11 14 14 15 16 16 17 19 23 24 26 26 26 27 26 26 28 29 29 28 27 27 23 22 23 21 20 18 16 16 15 16 16 16 18 20 21 22 21 21 27 34 36 36 36 36 36 37 39 39 43 48
19 17 17 16 15 15 14 14 14 14 13 13 13 12 13 14 15 15 16 16 15 17 19 21 24 22 17 15 15 14 14 17 18 17 17 15 15 17 17 17 18 17 17 19 22 24 26 25 25 28 27 25 26 28 30 28 27 27 25 24 25 23 21 19 17 18 17 16 17 18 18 18 18 19 19 20 25 31 32 33 36 36 36 37 37 38 41 46
19 18 17 16 15 14 14 14 14 13 13 13 13 14 16 17 18 20 23 24 23 24 24 24 22 18 16 17 18 19 18 19 20 19 19 18 19 20 18 19 20 20 19 20 22 23 25 25 25 26 25 24 26 28 28 28 27 27 26 26 26 23 20 18 17 18 18 18 18 18 18 17 15 15 15 16 20 26 28 30 35 37 37 37 37 37 40 45
18 17 16 15 15 14 14 14 13 13 13 12 14 16 18 18 18 21 24 24 23 23 22 21 20 17 15 16 19 21 21 19 20 21 21 22 23 22 20 20 22 22 22 22 24 22 23 26 26 24 23 26 29 31 30 29 29 27 27 27 25 23 21 18 19 20 20 20 20 19 18 17 15 14 13 13 16 23 25 28 35 38 37 37 37 37 40 45
17 16 15 15 15 15 15 15 14 14 14 13 15 19 19 19 20 21 20 18 17 16 18 18 18 17 14 14 17 21 23 21 20 21 23 24 24 24 22 21 22 23 23 24 25 24 23 25 24 23 27 29 32 35 33 30 29 27 27 27 25 24 21 19 19 21 21 23 23 22 22 19 16 14 14 14 16 20 23 26 33 37 38 38 38 38 40 43
17 16 16 15 16 16 16 16 16 15 15 14 17 21 20 21 25 23 21 21 18 15 16 16 17 17 12 12 15 19 25 25 21 21 23 24 24 23 23 22 21 23 25 26 28 28 26 24 22 26 31 32 32 33 32 30 29 28 27 27 26 23 21 20 21 22 22 24 25 24 25 22 18 17 16 16 16 16 19 22 28 34 37 39 40 40 40 42
17 17 16 16 17 17 16 17 16 16 16 16 20 22 21 24 27 25 25 26 21 16 15 15 16 16 11 11 13 16 22 23 21 22 23 24 24 23 24 24 23 24 27 28 29 30 29 25 25 29 32 31 31 31 30 29 28 28 28 27 26 23 23 22 21 23 26 27 26 25 26 24 19 18 17 16 15 14 16 20 24 30 35 40 41 42 42 43
18 17 17 17 17 16 16 16 15 16 18 20 23 22 20 24 27 25 27 29 24 18 16 14 15 14 10 10 12 14 17 17 17 20 22 24 25 25 25 25 25 26 26 27 29 31 28 26 26 29 31 31 31 31 31 30 28 29 29 27 26 24 23 22 22 25 28 30 29 28 28 26 22 22 19 18 18 16 18 23 26 30 35 40 42 42 43 46
18 17 17 17 16 16 15 15 17 18 19 19 20 22 21 22 26 26 28 32 28 22 19 18 18 15 11 11 12 13 15 16 15 16 20 23 25 27 27 26 27 27 27 28 30 32 28 26 27 29 30 31 31 31 31 31 29 28 28 27 26 25 24 25 27 29 28 31 33 30 30 28 24 24 23 22 22 21 24 29 30 33 37 40 43 44 45 49
17 17 17 16 16 16 15 17 19 18 18 19 20 22 20 21 27 28 32 39 34 26 24 24 23 19 14 12 13 14 15 16 14 14 17 22 25 27 28 28 27 28 29 29 31 31 29 28 28 29 30 30 30 30 29 30 29 27 28 28 26 26 28 30 33 33 32 35 37 34 33 29 25 25 27 27 27 29 32 34 34 35 39 41 44 47 49 52
18 18 17 17 16 15 15 16 16 16 21 22 22 21 19 23 27 27 35 41 36 30 30 28 27 24 20 14 13 13 15 15 15 14 14 20 25 26 28 29 27 28 28 30 32 30 28 28 29 30 31 32 32 30 30 31 29 29 30 31 29 29 30 31 34 34 36 38 40 40 37 31 29 30 31 30 32 37 40 39 39 40 42 44 45 48 51 54
19 18 17 17 16 15 14 14 13 16 21 21 19 18 17 22 26 30 42 42 32 33 36 36 33 29 27 24 17 14 15 18 21 19 15 20 26 26 29 30 29 31 31 32 34 30 27 27 29 33 34 34 33 31 32 32 31 30 30 32 31 30 30 32 33 34 38 39 39 44 39 33 36 38 35 33 36 42 44 42 43 44 44 45 46 48 52 55
19 16 15 15 15 15 13 13 13 14 18 19 18 17 15 19 23 32 45 41 30 32 36 41 40 33 32 33 28 22 22 25 28 27 22 24 28 27 29 31 30 34 35 32 32 29 27 27 29 33 34 33 32 30 32 32 31 31 31 32 31 31 32 33 32 31 36 41 40 42 40 35 40 43 41 41 41 44 47 46 46 47 47 47 47 48 51 55
16 15 15 16 16 15 14 14 13 13 17 18 18 16 14 19 26 34 41 34 28 31 32 36 40 37 36 36 35 32 30 31 32 32 30 30 32 29 30 32 34 37 37 33 31 30 29 29 31 32 31 31 30 30 30 30 30 31 33 33 32 35 36 36 37 34 38 44 40 41 43 39 41 44 45 45 43 44 50 51 49 49 48 48 48 49 51 55
15 15 17 17 16 15 14 14 14 15 17 16 17 15 13 20 30 37 36 28 29 33 31 33 36 38 39 38 37 35 34 36 35 35 36 35 36 35 34 35 36 40 40 34 32 34 34 33 33 31 29 29 29 29 30 30 30 31 35 35 35 40 39 36 37 36 41 46 41 42 45 41 42 46 49 50 48 47 51 53 53 51 49 48 48 50 52 55
16 18 19 17 15 15 16 13 13 14 14 12 12 13 15 20 27 31 28 23 31 37 33 33 34 37 40 40 41 41 39 41 40 39 39 37 38 38 37 39 39 40 41 38 36 37 35 34 34 31 29 29 30 31 30 30 31 33 37 38 38 40 37 38 43 42 44 45 39 44 45 42 47 51 52 54 53 51 51 53 56 56 52 49 49 51 53 54
18 18 16 15 15 16 16 13 10 9 9 8 9 13 18 20 21 24 22 20 28 36 34 32 33 37 39 40 44 46 44 44 45 44 43 40 40 40 38 41 41 39 42 42 40 37 34 33 33 30 30 30 30 32 31 32 33 33 36 36 38 40 37 43 49 45 43 42 39 43 42 43 55 58 57 58 57 55 54 55 59 61 58 53 54 58 59 58
17 14 11 14 15 13 12 10 8 7 6 7 11 15 15 14 17 22 23 21 21 27 33 32 34 38 39 37 41 45 47 49 49 49 49 46 46 45 42 41 40 40 42 43 42 40 36 34 32 29 30 32 31 32 33 36 35 33 35 34 35 39 37 40 44 39 40 43 43 45 45 49 60 63 60 59 57 56 56 57 60 62 61 57 56 62 68 70
13 10 10 15 16 12 10 9 9 8 5 7 15 18 14 13 18 22 24 22 17 19 28 32 34 41 40 36 37 41 46 53 55 52 52 52 51 50 45 41 40 41 43 45 45 41 35 34 33 30 30 33 34 35 36 39 39 37 36 31 30 34 34 36 42 42 44 47 49 56 62 63 63 62 58 56 55 55 56 57 57 61 64 60 57 63 72 77
14 12 11 18 19 18 18 14 11 9 8 12 17 18 17 17 17 19 20 17 14 14 23 31 36 43 45 39 37 40 44 55 63 58 54 55 54 53 49 43 41 40 41 46 47 42 35 33 34 32 32 33 34 38 38 38 41 43 37 31 32 34 34 38 44 44 46 49 54 66 75 72 66 61 56 55 57 58 58 58 57 63 70 70 67 67 70 73
18 16 15 22 26 27 28 22 17 15 14 17 20 19 22 21 16 16 16 12 13 16 21 33 40 43 47 44 40 40 42 51 60 61 60 60 57 55 53 48 44 41 40 43 47 45 38 33 34 34 34 35 35 37 38 35 38 42 39 36 37 37 37 43 48 51 50 49 55 71 80 75 70 66 59 57 61 62 63 63 62 66 75 81 79 72 68 69
20 22 23 30 33 34 35 31 27 25 23 26 31 31 29 25 18 15 14 12 16 19 21 32 42 44 47 48 44 42 44 50 57 60 63 63 57 56 57 53 48 45 43 42 47 51 44 36 36 36 36 39 40 36 37 37 33 34 39 41 41 43 45 43 45 50 52 51 55 65 75 74 70 67 60 58 63 64 66 66 64 65 72 79 82 76 72 73
19 28 34 37 38 38 37 35 31 30 31 35 40 37 31 28 23 19 18 18 20 22 21 26 38 47 51 49 46 46 49 53 58 60 62 64 61 57 60 59 53 51 49 47 51 55 50 41 39 41 39 41 45 40 39 42 36 31 36 41 42 48 51 46 42 44 49 56 58 56 63 67 65 63 58 57 64 65 65 66 64 65 70 74 78 77 75 75
20 35 42 41 41 39 36 35 34 35 38 41 41 39 35 33 29 24 24 26 26 26 25 24 33 49 55 50 49 50 49 52 59 62 63 65 65 63 64 64 61 59 56 54 58 59 55 47 44 47 44 41 47 46 43 46 43 35 36 40 41 45 48 46 45 43 44 55 61 58 61 62 61 62 61 61 66 64 64 67 66 68 75 77 75 74 73 72
25 38 43 41 41 39 35 35 35 37 43 46 45 43 40 37 35 33 30 30 29 27 26 26 31 46 55 54 54 53 50 50 57 62 61 61 62 64 66 65 65 67 63 62 63 61 59 54 49 52 48 41 46 47 44 47 48 44 43 42 43 47 49 48 49 48 46 52 57 60 66 67 64 66 67 68 69 65 67 73 73 75 82 82 77 73 72 73
35 41 41 40 41 38 36 37 37 37 43 46 44 41 38 37 37 36 34 33 30 27 26 27 29 38 50 55 56 54 53 52 54 57 60 61 63 63 65 63 64 69 70 72 71 66 66 62 54 54 51 44 44 45 46 50 51 51 50 46 46 50 51 51 53 52 48 48 50 55 66 71 67 67 71 74 73 70 74 81 81 82 85 86 84 82 80 78
38 41 39 39 40 38 37 40 42 43 44 44 43 41 40 38 36 36 37 37 34 30 29 29 30 33 42 52 55 53 53 54 56 61 63 65 64 62 62 62 62 65 68 72 72 69 71 69 60 58 58 52 49 46 47 51 55 57 56 51 49 49 50 54 57 55 51 49 49 53 64 69 67 69 75 78 76 75 80 84 84 83 81 83 88 90 88 83
35 38 40 41 39 37 38 41 43 44 45 44 45 46 44 43 41 39 39 42 41 36 34 35 35 36 38 45 52 55 56 55 59 64 64 63 61 58 60 62 62 63 65 68 69 67 72 77 68 61 61 61 58 54 51 52 57 61 60 56 51 50 51 53 55 54 53 53 50 52 64 71 69 71 75 78 80 82 85 86 87 88 87 85 87 87 86 84
34 37 40 39 37 37 39 41 40 43 46 48 50 51 50 49 47 45 45 48 46 42 40 40 39 40 41 44 46 52 57 57 60 66 66 64 61 57 60 63 63 65 65 65 65 64 73 83 76 67 68 70 69 64 58 57 60 62 62 60 56 53 51 49 50 51 51 55 56 56 65 73 73 73 75 78 81 82 83 84 86 91 93 90 87 85 84 83
36 38 38 36 36 37 37 36 36 38 43 51 53 52 52 53 51 50 51 52 51 48 46 44 42 42 44 47 46 46 53 58 61 67 68 69 66 60 59 63 66 68 68 66 65 67 77 84 81 76 73 71 70 65 59 59 60 61 63 65 63 60 56 52 54 54 53 59 63 63 65 70 73 76 77 79 82 82 83 82 81 85 88 86 86 86 85 84
38 38 37 38 39 39 36 33 33 34 38 47 52 50 52 55 55 55 54 53 53 53 54 50 47 46 46 47 46 45 51 60 64 67 69 69 70 66 61 62 66 69 69 68 68 73 80 81 81 80 75 72 70 64 60 60 60 61 65 68 69 67 64 61 60 59 58 60 62 64 66 67 69 75 79 82 83 82 83 83 82 83 83 83 83 82 79 80
36 36 37 38 39 39 36 32 33 38 42 51 57 56 56 58 60 59 57 55 54 56 60 59 55 53 48 46 46 44 49 58 63 67 70 69 70 73 68 66 68 69 71 73 72 77 82 80 78 80 79 78 77 70 66 65 64 64 66 70 72 72 69 68 67 65 63 61 62 66 70 71 72 77 83 84 83 82 83 83 81 80 80 81 80 78 76 77
35 36 38 38 37 36 35 32 35 41 45 54 62 62 61 61 62 61 59 59 61 60 62 66 65 62 56 51 49 46 46 52 57 63 69 67 69 74 71 70 72 71 73 77 75 75 80 80 80 80 80 82 83 79 75 72 68 68 68 68 71 74 73 75 75 71 67 66 65 68 74 78 79 81 83 81 78 78 79 79 77 76 77 78 77 75 75 75
36 37 37 38 37 35 35 33 35 39 41 48 56 60 62 63 63 62 60 62 68 69 67 69 71 72 70 64 58 51 48 50 56 63 66 66 69 72 70 70 72 72 75 80 77 74 77 80 82 83 84 86 87 85 83 79 74 72 71 69 70 72 74 77 80 77 73 72 71 72 78 82 82 82 81 77 75 75 76 77 76 75 75 74 73 73 73 73
40 38 37 38 38 36 33 31 34 39 39 42 49 57 61 60 57 59 60 60 65 70 71 71 70 72 76 75 66 60 54 51 54 59 62 63 66 70 71 71 70 70 77 82 80 78 81 83 85 86 89 91 90 88 89 87 82 78 76 76 76 75 74 76 79 80 78 77 77 79 83 84 83 83 81 78 77 77 79 81 80 78 78 75 74 74 74 73
41 41 38 38 36 35 34 34 36 37 34 36 45 54 58 59 56 56 59 58 58 61 66 69 67 66 70 72 67 62 57 53 52 53 55 59 62 64 68 72 71 71 78 83 80 80 83 85 87 88 92 93 91 90 92 92 89 88 85 83 83 81 78 79 81 82 81 81 80 82 83 83 85 85 83 83 83 81 81 83 82 84 85 83 83 82 78 75